Regional Weather Roundup
Issued by NWS

Home | Current Version | Previous Version | Text Only | Print | Product List | Glossary On
Versions: 1 2 3 4 5 6 7 8 9 10 11 12 13 14 15 16 17 18 19 20 21 22 23 24 25 26 27 28 29 30 31 32 33 34 35 36 37 38 39 40 41 42 43 44 45 46 47 48 49 50
257
ASUS43 KOAX 170810
RWRNE

WEATHER ROUNDUP FOR NEBRASKA
NATIONAL WEATHER SERVICE OMAHA NE
200 AM CST SUN NOV 17 2019

NOTES: SATELLITE DATA IS BEING USED TO AUGMENT CLOUD COVER ABOVE
       12000 FEET.
       "FAIR" INDICATES FEW OR NO CLOUDS BELOW 12,000 FEET WITH NO
       SIGNIFICANT WEATHER AND/OR OBSTRUCTIONS TO VISIBILITY.


NEZ001>004-019>022-054>056-170900-
NEBRASKA PANHANDLE

CITY           SKY/WX    TMP DP  RH WIND       PRES   REMARKS
SCOTTSBLUFF    FAIR      29  27  92 N3        30.21F
ALLIANCE       FAIR      28  24  85 W10       30.17F WCI  19
CHADRON        FAIR      36  30  79 W18       30.17F WCI  26
GORDON         FAIR      32  30  90 W9        30.14S WCI  25
KIMBALL        FAIR      29  27  91 W10       30.21F WCI  20
SIDNEY         FAIR      29  26  89 NW9       30.19F WCI  20
$$

NEZ057>060-069>072-079>082-170900-
SOUTHWEST NEBRASKA

CITY           SKY/WX    TMP DP  RH WIND       PRES   REMARKS
NORTH PLATTE   FAIR      36  33  89 NW7       30.14S WCI  30
IMPERIAL       FAIR      37  30  75 NW12      30.17S WCI  29
LEXINGTON      FAIR      38  33  82 NW9       30.11S WCI  32
MCCOOK         FAIR      42  35  76 NW10      30.14F
OGALLALA       FAIR      37  34  89 NW15      30.17S WCI  28
$$

NEZ005>010-023>029-035>040-094-170900-
NORTH CENTRAL NEBRASKA

CITY           SKY/WX    TMP DP  RH WIND       PRES   REMARKS
VALENTINE      FAIR      35  28  75 W9        30.11R WCI  28
AINSWORTH      FAIR      38  34  85 NW9       30.09S WCI  31
BROKEN BOW     FAIR      39  31  72 NW10      30.08F WCI  32
O`NEILL        FAIR      39  34  83 W8        30.06S WCI  33
ORD            FAIR      39  33  79 NW8       30.06S WCI  33
THEDFORD       FAIR      34  31  91 W9        30.13S WCI  26
$$

NEZ041-046>049-061>064-073>077-083>087-170900-
SOUTH CENTRAL NEBRASKA

CITY           SKY/WX    TMP DP  RH WIND       PRES   REMARKS
GRAND ISLAND   CLOUDY    47  35  63 NW17      30.07R
AURORA         CLOUDY    46  40  78 NW13      30.04F
HASTINGS       CLOUDY    46  35  65 NW16G25   30.06F
HEBRON         FAIR      44  37  76 NW9       30.04R
HOLDREGE       FAIR      44  37  74 NW8       30.09S
YORK           CLOUDY    43  37  81 NW13      30.03S
$$

NEZ011>018-030>034-042>045-170900-
NORTHEAST NEBRASKA

CITY           SKY/WX    TMP DP  RH WIND       PRES   REMARKS
NORFOLK        CLOUDY    45  36  70 NW13      30.01S
ALBION         CLOUDY    45  37  73 NW15      30.03S
BLAIR          MOCLDY    44  37  78 N10       29.97S
FREMONT        CLOUDY    42  38  86 W7        30.00S
TEKAMAH        MOCLDY    42  38  85 NW12      29.98S
WAYNE          CLOUDY    44  38  81 NW13      30.00S
$$

NEZ050>053-065>068-078-088>093-170900-
SOUTHEAST NEBRASKA

CITY           SKY/WX    TMP DP  RH WIND       PRES   REMARKS
LINCOLN        FAIR      44  35  70 NW9       30.01S
OMAHA EPPLEY   FAIR      45  37  73 NW15      29.97S
BEATRICE       FAIR      43  36  77 NW8       29.99S
FALLS CITY     FAIR      46  31  55 SW7       29.96F
NEBRASKA CITY  FAIR     N/A N/A N/A W9        29.96S
PLATTSMOUTH    FAIR      42  32  67 NW9       29.97R
$$

NEZ044-045-051>053-067-170900-
OMAHA AREA

CITY           SKY/WX    TMP DP  RH WIND       PRES   REMARKS
OMAHA EPPLEY   FAIR      45  37  73 NW15      29.97S
BLAIR          MOCLDY    44  37  78 N10       29.97S
FREMONT        CLOUDY    42  38  86 W7        30.00S
MILLARD        FAIR      47  38  71 NW9       29.98S
OFFUTT AFB     PTCLDY    45  28  53 NW8       29.97R
PLATTSMOUTH    FAIR      42  32  67 NW9       29.97R
WAHOO          FAIR      40  36  83 NW7       30.00S
$$




USA.gov is the U.S. government's official web portal to all federal, state and local government web resources and services.